Location: Leiter
(44.7178°N, 106.2687°W)
Time: 03:39:27
(UTC+00:00)

STARS - Pass Details

Date: 04 July 2022
Orbit: 620 x 637 km, 98.2° (Epoch: 13 August)

Event Time Altitude Azimuth Distance (km) Brightness Sun altitude
Rises 07:23:26 0° 354° (N) 2,931 ? -22.3°
Reaches altitude 10° 07:26:54 10° 325° (NW) 2,012 ? -22.3°
Maximum altitude 07:28:39 12° 301° (WNW) 1,859 ? -22.3°
Drops below altitude 10° 07:30:23 10° 277° (W) 2,003 ? -22.2°
Enters shadow 07:31:26 - 266° (W) 2,212 ? -22.2°
